Preview of NWS' New Version of Forecast
This preview is not operational and should not be used for support decisions.

Regional Weather Roundup (RWR)

Issued by Key West, FL (KEY)

                            
000
ASUS42 KKEY 200710
RWRKEY

FLORIDA KEYS REGIONAL WEATHER ROUNDUP
NATIONAL WEATHER SERVICE KEY WEST FLORIDA
300 AM EDT MON MAY 20 2019

...SOUTH FLORIDA AND THE KEYS...
  
CITY           SKY/WX    TMP DP  RH WIND       PRES   REMARKS
FORT MYERS     FAIR      73  68  84 SE5       29.99F                  
SW REGIONAL AP FAIR      74  67  78 SE3       30.00F                  
NAPLES         FAIR      76  67  73 CALM      29.99F                  
MIAMI          FAIR      79  70  74 E3        29.99F                  
WEST KENDALL   FAIR      73  69  87 CALM      29.99F                  
HOMESTEAD      FAIR      75  70  85 CALM      29.97F                  
MARATHON       FAIR      82  70  66 E3        29.97F                  
KEY WEST INTL  FAIR      80  71  74 E7        29.98F                  

...INTERNATIONAL WEATHER...
  
CITY           SKY/WX    TMP DP  RH WIND       PRES   REMARKS
HAVANA           N/A     70  70 100 E2        29.97S                  
VARADERO         N/A     70  68  94 S5        29.97F                  
CANCUN         PTCLDY    81  75  83 E14       29.91F                  
COZUMEL        CLEAR     79  75  89 SE9       29.89F                  
KINGSTON       PTCLDY    81  68  65 N6        29.92S                  

ADJACENT COASTAL WATERS...
  
STATION/POSITION TIME  SKY/WX   TEMP    WIND        PRES    WAVE
                                AIR SEA DIR/SP/G            HT/PER
                 (UTC)          (F)     (DEG/KT/KT) (MB)    (FT/S)
PULASKI SHOAL LI 0645            80     140/  5/  7 1015.1F
SAND KEY         0650            80                 1015.0F
SOMBRERO KEY     0650            80                 1014.5F
LONG KEY         NOT AVBL
MOLASSES REEF    NOT AVBL
FOWEY ROCKS      NOT AVBL
Buoy 42095       0630               82                N/A     1/ 6
Buoy 42097       0700               81                N/A     2/ 4

$$